Location: Newark
(34.6283°N, 36.0776°E)
Time: 08:14:07
(UTC+00:00)

Tiros 1 despin weight - Pass Details

Date: 20 September 2019
Orbit: 594 x 643 km, 48.2° (Epoch: 15 October)

Event Time Altitude Azimuth Distance (km) Brightness Sun altitude
Rises 14:06:39 0° 312° (NW) 2,848 ? 17.5°
Reaches altitude 10° 14:09:31 10° 330° (NNW) 1,937 ? 16.9°
Maximum altitude 14:12:44 19° 17° (NNE) 1,423 ? 16.3°
Drops below altitude 10° 14:15:56 10° 64° (ENE) 1,924 ? 15.6°
Sets 14:18:46 0° 82° (E) 2,822 ? 15.0°
